www.pogodaiklimat.ru

Погода и климат >> Архив погоды >> Мадагаскар >> Аэропорт Fascene


ПОГОДА в Аэропорту Fascene

  • Прогноз погоды в Аэропорту Fascene
  • Монитор погоды в Аэропорту Fascene

АРХИВ ПОГОДЫ в Аэропорту Fascene

Время (UTC), дата Ветер
(напр.,м/с)
 
Видим.   Явления Облачность Т
(С)
Тd
(С)
f
(%)
Тe
(С)
Тes
(С)
Комфортность P
(гПа)
Po
(гПа)
Тmin
(С)
Tmax
(С)
R
(мм)
R24
(мм)
S
(см)
09 20.05 СВ 2 40 км 5/3 600 м
[Cu med, cong Ac trans]
+30.1 +25.2 75 +44 +52 опасность
перегрева
1014.4 1013.3
12 20.05 З 3 40 км 5/4 600 м
[Cu med, cong Ac trans Ci sp]
+30.7 +24.9 71 +44 +46 опасность
перегрева
1012.6 1011.5
15 20.05 Ю 1 40 км 5/5 600 м
[Cu med, cong]
+26.5 +24.5 89 +37 +37 очень
душно
1013.1 1012.0 +30.9
18 20.05 штиль 0 н/о н/о +24.4 +24.4 100 +34 +34 очень
душно
1013.8 +32.0
21 20.05 Ю 1 н/о н/о +23.8 +23.8 100 +32 +32 очень
душно
1013.8
00 21.05 ЮЗ 1 30 км 3/3 600 м
[Cu med, cong]
+23.5 +23.5 100 +32 +32 очень
душно
1013.7 1012.7
03 21.05 ЮЗ 1 40 км 4/4 600 м
[Cu med, cong]
+24.0 +24.0 100 +33 +33 очень
душно
1014.6 1013.4
06 21.05 СВ 1 40 км 8/5 600 м
[Cu med, cong Ac trans]
+29.7 +25.5 78 +44 +44 опасность
перегрева
1015.8 1014.8 +23.4 +30.9
09 21.05 СЗ 1 40 км 8/6 600 м
[Cu med, cong Ac trans]
+25.4 -2 +3 1015.1 1014.0
12 21.05 З 2 40 км 8/6 600 м
[Cu med, cong Ac trans]
+31.0 +25.4 72 +45 +45 опасность
перегрева
1013.2 1012.3
15 21.05 ЮЗ 2 40 км 8/6 600 м
[Cu med, cong Ac trans Ci sp]
+25.8 +24.8 94 +37 +37 очень
душно
1014.3 1013.2 +30.0
18 21.05 Ю 1 30 км 5/5 600 м
[Cu med, cong]
+25.6 +23.5 88 +35 +35 очень
душно
1015.5 1014.7 +31.3
21 21.05 штиль 0 н/о н/о +24.0 +24.0 100 +33 +33 очень
душно
1014.0
00 22.05 Ю 1 30 км 5/5 600 м
[Cu med, cong]
+23.5 +23.5 100 +32 +32 очень
душно
1013.7 1012.9
03 22.05 Ю 1 35 км 9/9 600 м
[Cu med, cong]
+23.7 +23.7 100 +32 +32 очень
душно
1014.4 1013.2
06 22.05 Ю 1 40 км 8/4 600 м
[Cu med, cong Ac trans]
+28.6 +25.4 83 +42 +42 опасность
перегрева
1015.8 1014.7 +23.1 +30.9
09 22.05 СВ 3 40 км 9/9 600 м
[Cu med, cong]
+29.9 +25.6 78 +44 +45 опасность
перегрева
1014.5 1013.4
12 22.05 З 2 40 км 6/4 600 м
[Cu med, cong Ac trans]
+30.2 +24.4 71 +42 +45 опасность
перегрева
1012.7 1011.6
15 22.05 З 1 30 км слаб. дождь 9/9 600 м
[Cu Sc]
+25.3 +24.6 96 +36 +36 очень
душно
1013.9 1012.8 +31.0 0.4
18 22.05 штиль 0 30 км {дождь} 5/3 600 м
[Cu med, cong Ac trans]
+24.5 +24.5 100 +34 +34 очень
душно
1014.8 1014.2 +31.6 1
21 22.05 Ю 1 н/о н/о +23.9 +23.9 100 +33 +33 очень
душно
1013.6
00 23.05 Ю 1 30 км 3/3 600 м
[Cu med, cong]
+23.1 +23.1 100 +32 +32 очень
душно
1013.8 1012.7 0.2
03 23.05 Ю 1 40 км 3/3 600 м
[Cu med, cong]
+22.2 +22.2 100 +30 +30 очень
душно
1014.6 1013.3 9
06 23.05 Ю 1 40 км 3/3 600 м
[Cu med, cong Ac trans]
+28.4 +24.6 80 +40 +47 очень
душно
1016.1 1015.0 +22.3 +31.0 9
09 23.05 С 2 40 км 8/8 600 м
[Cu med, cong]
+30.0 +25.1 75 +43 +46 опасность
перегрева
1014.5 1013.4
12 23.05 ЮЗ 1 40 км 6/6 600 м
[Cu med, cong]
+30.1 +25.2 75 +44 +46 опасность
перегрева
1013.0 1011.9
15 23.05 Ю 1 40 км 5/5 600 м
[Cu med, cong]
+27.1 +24.9 88 +39 +39 очень
душно
1014.1 1012.8 +31.2
18 23.05 Ю 1 35 км 5/5 600 м
[Cu med, cong]
+25.6 +25.6 100 +37 +37 очень
душно
1014.9 1014.0 +31.8
21 23.05 ЮЗ 1 н/о н/о +24.3 +24.3 100 +34 +34 очень
душно
1013.9
00 24.05 Ю 1 35 км 5/5 600 м
[Cu med, cong]
+24.2 +24.2 100 +33 +33 очень
душно
1013.8 1012.9
03 24.05 штиль 0 40 км 5/5 600 м
[Cu med, cong]
+23.0 +23.0 100 +32 +32 очень
душно
1014.4 1013.3
06 24.05 СВ 1 40 км 5/5 600 м
[Cu med, cong]
+29.0 +25.2 80 +42 +47 опасность
перегрева
1015.6 1014.5 +23.1 +31.2
09 24.05 СВ 2 40 км 3/3 600 м
[Cu med, cong]
+30.4 +24.5 71 +43 +43 опасность
перегрева
1014.4 1013.1
12 24.05 С 2 40 км 1/1 600 м
[Cu hum]
+30.8 +22.9 63 +41 +46 опасность
перегрева
1012.3 1011.2
15 24.05 штиль 0 40 км 1/1 600 м
[Cu hum]
+25.8 +24.6 93 +36 +36 очень
душно
1013.1 1012.0 +31.7
18 24.05 штиль 0 30 км 4/1 600 м
[Cu hum Ac trans]
+23.9 +23.9 100 +33 +33 очень
душно
1014.7 1014.0 +31.8
21 24.05 Ю 1 н/о н/о +23.2 +23.2 100 +33 +33 очень
душно
1014.1
00 25.05 ЮЗ 1 н/о н/о +22.8 +22.8 100 +31 +31 очень
душно
1012.9
03 25.05 ЮЗ 1 40 км 4/3 600 м
[Cu med, cong Ac trans]
+22.6 +22.6 100 +31 +31 очень
душно
1015.3 1013.9
06 25.05 штиль 0 40 км 4/3 600 м
[Cu med, cong Ci sp]
+29.8 +24.0 71 +41 +48 опасность
перегрева
1016.2 1015.1 +22.5 +31.7
09 25.05 СВ 2 40 км 6/4 600 м
[Cu med, cong Ci sp]
+30.7 +22.8 63 +41 +49 опасность
перегрева
1014.2 1013.1
12 25.05 З 2 40 км 3/3 600 м
[Cu med, cong]
+30.8 +23.9 67 +42 +46 опасность
перегрева
1012.2 1011.1
15 25.05 Ю 1 40 км 5/5 600 м
[Cu med, cong]
+26.2 +24.4 90 +37 +37 очень
душно
1013.3 1012.2 +30.9
18 25.05 штиль 0 н/о н/о +24.8 +23.9 95 +34 +34 очень
душно
1013.9 +31.4
21 25.05 ЮЗ 1 н/о н/о +23.5 +23.5 100 +32 +32 очень
душно
1013.6
00 26.05 Ю 1 30 км 4/4 600 м
[Cu med, cong]
+22.8 +22.8 100 +31 +31 очень
душно
1013.6 1012.5
03 26.05 ЮЗ 1 40 км 3/3 600 м
[Cu med, cong]
+21.9 +21.9 100 +29 +29 очень
душно
1014.2 1013.2
06 26.05 СВ 2 н/о н/о +29.3 +24.0 73 +41 +46 опасность
перегрева
1015.0 1013.9 +22.1 +30.9
09 26.05 С 2 40 км 3/3 600 м
[Cu med, cong]
+30.2 +21.8 61 +39 +49 очень
душно
1012.8 1011.7
12 26.05 С 2 40 км 3/3 600 м
[Cu med, cong]
+31.3 +22.9 61 +41 +45 опасность
перегрева
1011.5 1010.3
15 26.05 Ю 1 н/о н/о +25.4 +23.6 90 +35 +35 очень
душно
1011.5
18 26.05 Ю 1 н/о н/о +23.4 +23.4 100 +33 +33 очень
душно
1013.7 1012.9 +31.3
21 26.05 Ю 1 н/о н/о +22.3 +22.3 100 +30 +30 очень
душно
1012.6
00 27.05 ЮЗ 1 30 км 3/3 600 м
[Cu med, cong]
+22.1 +22.1 100 +29 +29 очень
душно
1012.9 1011.4
03 27.05 ЮЗ 1 н/о н/о +22.6 +22.6 100 +31 +31 очень
душно
1013.7 1012.3
06 27.05 СВ 1 н/о н/о +29.0 +24.1 75 +40 +40 очень
душно
1013.8 +22.0

 

Местоположение метеостанции Аэропорт Fascene (Мадагаскар): широта -13.31 долгота 48.32 высота над уровнем моря 9 м.

В архиве по умолчанию представлена погода в Аэропорту Fascene за последнюю неделю. Архивные данные за месяц целиком и за предыдущие месяцы, начиная с января 2011 года, Вы можете получить, выбрав интересующий диапазон дат из раскрывающегося списка и нажав кнопку "Ввод!".


*Определитесь, кто Вы:
робот инопланетянин человек

Внимание! Время в таблицах - всемирное. Для получения местного времени необходимо прибавить поправку, которая равна 3 ч.

Смотрите также архив погоды в соседних городах и на ближайших метеорологических станциях:

Погода в Анциранане (Мадагаскар) (151 км)
Погода в Анцухихи (Мадагаскар) (178 км)
Погода в Самбаве (Мадагаскар) (227 км)
Погода на Острове Глорьёз (Реюньон) (235 км)
Погода в Анталахе (Мадагаскар) (272 км)
Погода в Дзаудзи (Коморские Острова) (334 км)
Погода в Махадзанге (Мадагаскар) (337 км)
Погода на Нуси Бураха (Мадагаскар) (449 км)
Погода в Амбоайтзилаозане (Мадагаскар) (481 км)
Погода в Туамасине (Мадагаскар) (546 км)

Пояснения к столбцам:

Ветер - указаны скорость ветра в м/с - средняя за 10 мин, порывы в срок и между сроками (в фигурных скобках) и направление, откуда дует ветер: С - северный, СВ - северо-восточный, В - восточный, ЮВ - юго-восточный, Ю - южный, ЮЗ - юго-западный, З - западный, СЗ - северо-западный.
Видимость - горизонтальная дальность видимости в метрах или километрах. При видимости от 1 до 10 км при отсутствии осадков обычно наблюдается дымка, при ухудшении видимости до 1 км и менее - туман. В сухую погоду видимость может ухудшаться дымом, пылью или мглою.
Явления - указаны атмосферные явления, наблюдавшиеся в срок или в последний час перед сроком; фигурными скобками обозначены явления, наблюдавшиеся между сроками (за 1-3 часа до срока); квадратными скобками обозначены град или гололедные отложения с указанием их диаметра в мм.
Облачность - указаны через наклонную черту общая и нижняя облачность в баллах и высота нижней границы облаков в метрах; квадратными скобками обозначены формы облаков: Ci - перистые, Cs - перисто-слоистые, Cc - перисто-кучевые, Ac - высококучевые, As - высокослоистые, Sc - слоисто-кучевые, Ns - слоисто-дождевые, Cu - кучевые, Cb - кучево-дождевые. Подробнее классификацию облаков см. в Атласе облаков (PDF).
T - Температура воздуха - температура, измеренная на высоте 2 м над землей.
Td - Температура точки росы - температура, при понижении до которой содержащийся в воздухе водяной пар достигнет насыщения.
f - Относительная влажность воздуха - влажноcть воздуха, измеренная на высоте 2 м над землей.
Te - Эффективная температура - температура, которую ощущает одетый по сезону человек в тени. Характеристика душности погоды. При расчете учитывается влияние влажности воздуха и скорости ветра на теплоощущения человека.
Tes - Эффективная температура на солнце - температура, которую ощущает человек, с поправкой на солнечный нагрев. Характеристика знойности погоды. Зависит от высоты солнца над горизонтом, облачности и скорости ветра. Ночью, в пасмурную погоду, а также при ветре 12 м/с и более поправка равна нулю.
P - Атмосферное давление - приведенное к уровню моря атмосферное давление.
Po - Атмосферное давление - измеренное на уровне метеостанции атмосферное давление.
Tmin - Минимальная температура - минимум температуры воздуха на высоте 2 м над землей.
Tmax - Максимальная температура - максимум температуры воздуха на высоте 2 м над землей.
R - Количество осадков - Количество выпавших осадков за период времени, мм. При наведении курсора мыши на число - период времени, за который выпало указанное количество осадков.
R24 - Количество осадков - Количество выпавших осадков за 24 часа, мм.
S - Снежный покров - Высота снежного покрова, см. При наведении курсора мыши на число - состояние снежного покрова и степень покрытия местности в баллах.